Tracking 17267 objects as of 31-August-2015
HD Live streaming from Space Station

COSMOS 482 DESCENT CRAFT

Track COSMOS 482 DESCENT CRAFT now!
10-day predictions
COSMOS 482 DESCENT CRAFT is classified as:


NORAD ID: 6073
Int'l Code: 1972-023E
Perigee: 212.8 km
Apogee: 2,907.5 km
Inclination: 52.1 °
Period: 117.2 minutes
Semi major axis: 7931 km
RCS: 0.7153 m2 (medium)
Launch date: March 31, 1972
Source: Commonwealth of Independent States (former USSR) (CIS)
Your satellite tracking list
Your tracking list is empty





NASA's NSSDC Master Catalog

Two Line Element Set (TLE):
1 06073U 72023E   15243.55737005  .00014479  42284-5  83671-4 0  9996
2 06073 052.0819 343.1025 1698807 259.6390 198.8621 12.29125214279219

Source of the keplerian elements: AFSPC

N2YO: 336